This demonstration page uses our WeatherBlox Daily Observations layout. Learn more.

Left ArrowRight Arrow

44.89941, -97.11507

Hourly Observations for February 18, 2021

Temp ( °F °C ) Dew Point ( °F °C ) Humidity (%) Winds ( mph kmh ) Pressure ( in mb ) Visibility ( mi km ) Precip ( " mm )
12:53 am 00:53 Hazy 0 -17.8 -5 -20.6 79 79 Calm 30.37 1029 4 6 0.00 0.00
12:58 am 00:58 Clear with Mist and Fog -1 -18.3 -5 -20.6 82 82 Calm 30.46 1032 2 3 0.00 0.00
1:09 am 01:09 Clear with Mist and Fog -1 -18.3 -2 -18.9 95 95 Calm 30.46 1032 1 2 0.00 0.00
1:16 am 01:16 Clear with Freezing Fog -1 -18.3 -2 -18.9 95 95 Calm 30.46 1032 1 1 0.00 0.00
1:24 am 01:24 Clear with Freezing Fog -3 -19.4 -4 -20 95 95 Calm 30.48 1032 0 0 0.00 0.00
1:35 am 01:35 Clear with Mist and Fog -2 -18.9 -3 -19.4 96 96 Calm 30.48 1032 1 2 0.00 0.00
1:38 am 01:38 Clear with Mist and Fog -4 -20 -5 -20.6 95 95 Calm 30.49 1032 2 3 0.00 0.00
1:48 am 01:48 Clear with Mist and Fog -2 -19 -6 -21 84 84 Calm 30.49 1032 3 5 0.00 0.00
1:53 am 01:53 Clear with Mist and Fog -5 -20.6 -9 -22.8 83 83 Calm 30.40 1029 3 5 0.00 0.00
1:58 am 01:58 Clear with Mist and Fog -6 -21.1 -9 -22.8 86 86 Calm 30.51 1033 2 3 0.00 0.00
2:01 am 02:01 Clear with Mist and Fog -6 -21.1 -8 -22.2 91 91 Calm 30.51 1033 1 1 0.00 0.00
2:12 am 02:12 Clear with Mist and Fog -8 -22.2 -9 -22.8 95 95 Calm 30.52 1033 2 3 0.00 0.00
2:20 am 02:20 Clear with Mist and Fog -8 -22.2 -11 -23.9 86 86 Calm 30.52 1033 3 5 0.00 0.00
2:48 am 02:48 Mostly Clear with Mist and Fog -6 -21 -9 -23 84 84 Calm 30.51 1033 3 4 0.00 0.00
2:49 am 02:49 Mostly Clear with Mist and Fog -6 -21.1 -9 -22.8 86 86 Calm 30.40 1030 3 4 0.00 0.00
2:58 am 02:58 Partly Cloudy with Mist and Fog -5 -20.6 -6 -21.1 96 96 Calm 30.50 1033 1 2 0.00 0.00
3:02 am 03:02 Mostly Cloudy with Freezing Fog -5 -20.6 -6 -21.1 96 96 Calm 30.50 1033 0 0 0.00 0.00
3:28 am 03:28 Clear with Mist and Fog -9 -22.8 -11 -23.9 91 91 Calm 30.52 1034 1 2 0.00 0.00
3:37 am 03:37 Clear with Freezing Fog -10 -23.3 -13 -25 86 86 Calm 30.53 1034 1 1 0.00 0.00
3:50 am 03:50 Clear with Mist and Fog -8 -22 -9 -23 92 92 Calm 30.51 1033 2 2 0.00 0.00
3:53 am 03:53 Clear with Mist and Fog -6 -21.1 -9 -22.8 86 86 Calm 30.39 1029 3 4 0.00 0.00
4:01 am 04:01 Clear with Mist and Fog -6 -21.1 -8 -22.2 91 91 Calm 30.50 1033 4 6 0.00 0.00
4:53 am 04:53 Clear with Mist and Fog -8 -22.2 -10 -23.3 91 91 Calm 30.39 1029 5 8 0.00 0.00
5:53 am 05:53 Partly Cloudy -6 -21.1 -9 -22.8 86 86 Calm 30.41 1030 8 13 0.00 0.00
6:53 am 06:53 Partly Cloudy -5 -20.6 -8 -22.2 87 87 S 3 6 30.42 1030 9 14 0.00 0.00
7:53 am 07:53 Cloudy with Mist and Fog -5 -20.6 -8 -22.2 87 87 S 3 6 30.41 1030 6 10 0.00 0.00
8:53 am 08:53 Cloudy with Mist and Fog 0 -17.8 -4 -20 83 83 SE 3 6 30.41 1030 5 8 0.00 0.00
9:53 am 09:53 Sunny 4 -15.6 0 -17.8 83 83 S 7 11 30.40 1029 8 13 0.00 0.00
10:53 am 10:53 Sunny 8 -13.3 2 -16.7 76 76 S 7 11 30.39 1029 9 14 0.00 0.00
11:40 am 11:40 Mostly Cloudy with Light Snow 10 -12.2 5 -15 80 80 S 7 11 30.44 1031 3 4 0.00 0.00
11:48 am 11:48 Cloudy with Light Snow 10 -12 7 -14 85 85 S 7 11 30.44 1031 1 2 0.00 0.00
11:53 am 11:53 Cloudy with Light Snow 10 -12.2 6 -14.4 84 84 S 6 9 30.40 1029 1 2 0.00 0.00
12:04 pm 12:04 Cloudy with Light Snow 11 -11.7 7 -13.9 84 84 S 6 9 30.44 1031 2 3 0.00 0.00
12:14 pm 12:14 Cloudy with Haze 14 -10 9 -12.8 80 80 W 12 19 30.43 1030 5 8 0.00 0.00
12:23 pm 12:23 Cloudy 14 -10 9 -12.8 80 80 W 10 17 30.43 1030 7 11 0.00 0.00
12:53 pm 12:53 Cloudy with Haze 14 -10 9 -12.8 80 80 W 14 22 30.38 1029 6 10 0.00 0.00
1:13 pm 13:13 Cloudy with Haze 14 -10 9 -12.8 80 80 W 13 20 30.41 1030 6 10 0.00 0.00
1:53 pm 13:53 Cloudy with Light Snow 15 -9.4 9 -12.8 77 77 WNW 13 20 30.37 1028 4 6 0.00 0.00
2:43 pm 14:43 Mostly Cloudy 14 -10 6 -14.4 71 71 W 13 20 30.40 1029 10 16 0.00 0.00
2:53 pm 14:53 Mostly Cloudy 14 -10 5 -15 67 67 WNW 13 20 30.37 1028 10 16 0.00 0.00
3:23 pm 15:23 Cloudy with Light Snow 14 -10 8 -13.3 77 77 WNW 12 19 30.40 1029 2 3 0.00 0.00
3:44 pm 15:44 Cloudy with Light Snow 14 -10 7 -13.9 73 73 W 13 20 30.40 1029 3 5 0.00 0.00
3:53 pm 15:53 Cloudy with Haze 14 -10 8 -13.3 77 77 WNW 12 19 30.37 1028 4 6 0.00 0.00
4:06 pm 16:06 Cloudy with Light Snow 14 -10 8 -13.3 77 77 W 12 19 30.40 1029 2 3 0.00 0.00
4:14 pm 16:14 Cloudy with Light Snow 13 -10.6 9 -12.8 84 84 WNW 10 17 30.40 1029 1 1 0.00 0.00
4:22 pm 16:22 Cloudy with Light Snow 13 -10.6 9 -12.8 84 84 WNW 10 17 30.40 1029 2 2 0.00 0.00
4:27 pm 16:27 Cloudy with Light Snow 13 -10.6 7 -13.9 77 77 WNW 10 17 30.40 1029 3 5 0.00 0.00
4:31 pm 16:31 Cloudy with Light Snow 13 -10.6 8 -13.3 81 81 WNW 10 17 30.41 1030 2 3 0.00 0.00
4:41 pm 16:41 Cloudy with Light Snow 13 -10.6 7 -13.9 77 77 WNW 13 20 30.41 1030 3 5 0.00 0.00
4:53 pm 16:53 Cloudy with Haze 13 -10.6 6 -14.4 74 74 WNW 10 17 30.38 1029 5 8 0.00 0.00
5:13 pm 17:13 Cloudy with Light Snow 13 -10.6 8 -13.3 81 81 WNW 9 15 30.41 1030 2 3 0.00 0.00
5:32 pm 17:32 Cloudy with Light Snow 13 -10.6 8 -13.3 81 81 WNW 8 13 30.40 1029 1 2 0.00 0.00
5:35 pm 17:35 Cloudy with Light Snow 13 -10.6 9 -12.8 84 84 NW 9 15 30.40 1029 1 1 0.00 0.00
5:46 pm 17:46 Cloudy with Light Snow 12 -11.1 8 -13.3 84 84 NW 9 15 30.40 1030 1 2 0.00 0.00
5:50 pm 17:50 Cloudy with Light Snow 10 -12 7 -14 85 85 NW 9 15 30.41 1030 2 3 0.00 0.00
5:53 pm 17:53 Cloudy with Light Snow 11 -11.7 7 -13.9 84 84 WNW 8 13 30.37 1029 4 6 0.00 0.00
6:50 pm 18:50 Partly Cloudy 9 -13 5 -15 85 85 NW 5 7 30.43 1030 8 13 0.00 0.00
6:53 pm 18:53 Mostly Clear 8 -13.3 5 -15 87 87 NW 5 7 30.38 1029 8 13 0.00 0.00
7:53 pm 19:53 Clear 6 -14.4 4 -15.6 91 91 WNW 5 7 30.39 1029 10 16 0.00 0.00
8:53 pm 20:53 Clear with Mist and Fog 1 -17.2 -2 -18.9 87 87 W 3 6 30.38 1029 5 8 0.00 0.00
9:53 pm 21:53 Clear -2 -18.9 -5 -20.6 87 87 WNW 3 6 30.37 1029 7 11 0.00 0.00
10:53 pm 22:53 Clear with Mist and Fog -1 -18.3 -3 -19.4 91 91 Calm 30.35 1028 5 8 0.00 0.00
11:53 pm 23:53 Cloudy with Mist and Fog -4 -20 -7 -21.7 86 86 S 3 6 30.35 1028 6 10 0.00 0.00

Powered by AerisWeather